Owosso, MI

3:51 AM EDT on August 28, 2016 (GMT -0400)
Owosso

Weather History for KRNP - October, 2012

Change the Weather History Date:

Saturday, October 13, 2012

  Actual Average (KFNT) Record (KFNT)
Temperature  
Mean Temperature 44 °F 50 °F  
Max Temperature 59 °F 61 °F 83 °F (1975)
Min Temperature 31 °F 40 °F 24 °F (1993)
Degree Days  
Heating Degree Days 20 15  
Month to date heating degree days 167  
Since 1 July heating degree days 377  
Cooling Degree Days 0 0  
Month to date cooling degree days 2  
Year to date cooling degree days 528  
Moisture  
Dew Point 41 °F    
Average Humidity 91    
Maximum Humidity 100    
Minimum Humidity 71    
Precipitation  
Precipitation 0.00 in 0.07 in 1.03 in (1928)
Month to date precipitation 1.14  
Year to date precipitation 25.45  
Snow  
Snow 0.00 in 0.00 in T in (2006)
Month to date snowfall 0.1  
Since 1 July snowfall 0.1  
Since 1 September snowfall 0.1  
Snow Depth -    
Sea Level Pressure  
Sea Level Pressure 30.13 in    
Wind  
Wind Speed 5 mph (SSE)    
Max Wind Speed 15 mph    
Max Gust Speed 20 mph    
Visibility 8 miles    
Events Rain    
T = Trace of Precipitation, MM = Missing Value Source: NWS Daily Summary

Daily Weather History Graph

Daily Weather History Graph

Search for Another Location

Airport or City:

Trip Planner

Search our weather history database for the weather conditions in past years. The results will help you decide how hot, cold, wet, or windy it might be!

Date:

Astronomy

Oct. 13, 2012 Rise Set
Actual Time 7:48 AM EDT 6:56 PM EDT
Civil Twilight 7:19 AM EDT 7:24 PM EDT
Nautical Twilight 6:46 AM EDT 7:57 PM EDT
Astronomical Twilight 6:13 AM EDT 8:30 PM EDT
Moon 5:34 AM EDT (10/13) 5:41 PM EDT (10/13)
Length of Visible Light 12h 05m
Length of Day
11h 08m
Waning Crescent, 5% of the Moon is Illuminated
Oct 13
Waning Crescent
Oct 15
New
Oct 21
First Quarter
Oct 29
Full
Nov 6
Last Quarter

Hourly Weather History & Observations

Time (EDT) Temp. Windchill Dew Point Humidity Pressure Visibility Wind Dir Wind Speed Gust Speed Precip Events Conditions
12:15 AM 31.6 °F - 31.1 °F 98% 30.37 in 10.0 mi Calm Calm - N/A   Clear
12:34 AM 31.1 °F - 31.1 °F 100% 30.37 in 10.0 mi Calm Calm - N/A   Clear
12:55 AM 31.8 °F - 31.8 °F 100% 30.36 in 10.0 mi Calm Calm - N/A   Clear
1:15 AM 32.0 °F - 31.5 °F 98% 30.36 in 10.0 mi Calm Calm - N/A   Clear
1:55 AM 33.8 °F 30.8 °F 32.0 °F 93% 30.34 in 10.0 mi SE 3.5 mph - N/A   Clear
2:16 AM 36.0 °F 33.3 °F 32.0 °F 86% 30.33 in 10.0 mi SSE 3.5 mph - N/A   Clear
2:35 AM 35.6 °F 31.7 °F 31.8 °F 86% 30.32 in 10.0 mi SE 4.6 mph - N/A   Clear
2:55 AM 36.0 °F - 32.0 °F 86% 30.33 in 10.0 mi Calm Calm - N/A   Clear
3:16 AM 36.3 °F - 32.0 °F 84% 30.33 in 10.0 mi Calm Calm - N/A   Clear
3:35 AM 36.1 °F 33.5 °F 31.8 °F 84% 30.32 in 10.0 mi SE 3.5 mph - N/A   Clear
3:55 AM 35.2 °F 32.4 °F 32.0 °F 88% 30.31 in 10.0 mi SE 3.5 mph - N/A   Clear
4:15 AM 36.1 °F 32.3 °F 32.4 °F 86% 30.30 in 10.0 mi SE 4.6 mph - N/A   Clear
4:35 AM 36.3 °F 32.5 °F 32.2 °F 85% 30.30 in 10.0 mi SE 4.6 mph - N/A   Clear
4:55 AM 36.7 °F - 32.5 °F 85% 30.31 in 10.0 mi Calm Calm - N/A   Clear
5:15 AM 36.7 °F 32.0 °F 32.9 °F 86% 30.29 in 10.0 mi SE 5.8 mph - N/A   Clear
5:35 AM 37.4 °F 33.8 °F 32.9 °F 84% 30.29 in 10.0 mi SSE 4.6 mph - N/A   Clear
5:56 AM 37.8 °F 32.5 °F 32.9 °F 83% 30.29 in 10.0 mi SSE 6.9 mph - N/A   Clear
6:15 AM 38.3 °F 33.9 °F 32.9 °F 81% 30.29 in 10.0 mi SSE 5.8 mph - N/A   Clear
6:56 AM 39.6 °F 34.0 °F 32.9 °F 77% 30.28 in 10.0 mi SSE 8.1 mph - N/A   Clear
7:15 AM 39.6 °F 33.5 °F 32.9 °F 77% 30.26 in 10.0 mi SE 9.2 mph - N/A   Clear
7:35 AM 39.6 °F 34.7 °F 32.9 °F 77% 30.24 in 10.0 mi SE 6.9 mph - N/A   Clear
7:56 AM 40.1 °F 36.1 °F 32.9 °F 75% 30.24 in 10.0 mi SE 5.8 mph - N/A   Clear
8:15 AM 41.2 °F 37.3 °F 32.9 °F 72% 30.25 in 10.0 mi SSE 5.8 mph - N/A   Scattered Clouds
8:35 AM 41.4 °F 36.2 °F 32.9 °F 72% 30.25 in 10.0 mi South 8.1 mph - N/A   Mostly Cloudy
8:55 AM 41.9 °F 37.5 °F 33.1 °F 71% 30.27 in 10.0 mi South 6.9 mph - N/A   Overcast
9:15 AM 41.5 °F 39.6 °F 34.7 °F 77% 30.28 in 7.0 mi SSE 3.5 mph - N/A   Unknown
9:55 AM 40.8 °F 36.2 °F 37.2 °F 87% 30.26 in 7.0 mi SSE 6.9 mph - N/A   Unknown
10:36 AM 41.0 °F 37.1 °F 38.5 °F 91% 30.24 in 3.0 mi SE 5.8 mph - N/A   Unknown
10:55 AM 41.0 °F 38.0 °F 39.0 °F 93% 30.23 in 3.0 mi SSE 4.6 mph - N/A   Unknown
11:36 AM 41.2 °F 35.0 °F 40.1 °F 96% 30.19 in 4.0 mi SSE 10.4 mph - N/A   Unknown
11:55 AM 41.5 °F 36.4 °F 40.5 °F 96% 30.16 in 4.0 mi SSE 8.1 mph - N/A   Unknown
12:15 PM 41.9 °F 36.3 °F 41.0 °F 97% 30.15 in 3.0 mi SSE 9.2 mph 16.1 mph N/A   Unknown
12:35 PM 42.3 °F 36.3 °F 41.5 °F 97% 30.14 in 5.0 mi SSE 10.4 mph 16.1 mph N/A   Unknown
12:55 PM 43.0 °F 36.8 °F 42.4 °F 98% 30.12 in 3.0 mi SSE 11.5 mph - N/A   Unknown
1:35 PM 44.6 °F 39.2 °F 44.4 °F 99% 30.06 in 4.0 mi SSE 10.4 mph 16.1 mph N/A   Unknown
2:15 PM 45.7 °F 40.2 °F 44.2 °F 95% 30.02 in 10.0 mi SSE 11.5 mph 17.3 mph N/A   Overcast
2:35 PM 46.2 °F 40.8 °F 43.9 °F 92% 30.00 in 10.0 mi SSE 11.5 mph 18.4 mph N/A   Overcast
2:56 PM 47.3 °F - 44.2 °F 89% 29.99 in 10.0 mi SSE 10.4 mph 18.4 mph N/A   Overcast
3:15 PM 47.7 °F - 44.8 °F 90% 29.99 in 10.0 mi SSE 11.5 mph 16.1 mph N/A   Drizzle
3:35 PM 48.2 °F - 45.5 °F 90% 29.97 in 7.0 mi SSE 12.7 mph 19.6 mph N/A Rain Rain
3:55 PM 47.8 °F - 46.4 °F 95% 29.96 in 5.0 mi SSE 12.7 mph 19.6 mph N/A Rain Rain
4:35 PM 49.1 °F - 47.8 °F 95% 29.93 in 4.0 mi South 9.2 mph 18.4 mph N/A Rain Heavy Rain
4:55 PM 49.8 °F - 48.4 °F 95% 29.94 in 7.0 mi South 9.2 mph 19.6 mph N/A Rain Heavy Rain
5:15 PM 50.0 °F - 49.1 °F 97% 29.93 in 4.0 mi South 9.2 mph 19.6 mph N/A Rain Rain
5:35 PM 50.4 °F - 49.5 °F 97% 29.92 in 7.0 mi South 10.4 mph 17.3 mph N/A Rain Rain
5:55 PM 50.5 °F - 49.5 °F 96% 29.92 in 7.0 mi South 10.4 mph 18.4 mph N/A Rain Rain
6:15 PM 50.5 °F - 50.0 °F 98% 29.91 in 5.0 mi South 10.4 mph - N/A Rain Light Rain
6:35 PM 50.9 °F - 50.2 °F 97% 29.90 in 7.0 mi South 11.5 mph 18.4 mph N/A   Drizzle
6:55 PM 51.3 °F - 50.5 °F 97% 29.89 in 10.0 mi South 10.4 mph 19.6 mph N/A Rain Light Rain
7:15 PM 51.8 °F - 51.1 °F 97% 29.88 in 5.0 mi SSW 6.9 mph - N/A   Overcast
7:35 PM 52.9 °F - 52.5 °F 99% 29.87 in 7.0 mi South 9.2 mph 16.1 mph N/A   Drizzle
8:35 PM 55.4 °F - 55.2 °F 99% 29.84 in 7.0 mi South 11.5 mph 17.3 mph N/A   Mostly Cloudy
8:55 PM 56.3 °F - 55.6 °F 97% 29.85 in 7.0 mi SSW 15.0 mph 19.6 mph N/A   Overcast
9:35 PM 57.0 °F - 56.5 °F 98% 29.85 in 7.0 mi SSW 10.4 mph 17.3 mph N/A   Overcast
10:15 PM 57.4 °F - 57.2 °F 99% 29.85 in 5.0 mi South 9.2 mph - N/A   Overcast
10:35 PM 58.1 °F - 57.7 °F 99% 29.85 in 4.0 mi South 8.1 mph - N/A   Overcast
10:55 PM 58.5 °F - 58.5 °F 100% 29.85 in 4.0 mi SSW 8.1 mph - N/A   Overcast
11:15 PM 59.7 °F - 59.7 °F 100% 29.85 in 3.0 mi SW 9.2 mph 16.1 mph N/A   Overcast